RH
7 7 7 8 8 7 7 6 6 6 6 7 7 7 7 7 8 7 7 13 42 86 102 98 102 98 100 101 83 87 100 80 63 66 65 64 60 49 40 39 36 35 37 33 30 27 25 28 31 33 36 39 41 41 41 41 40 41 40 38 34 28 28 28 28 29 28 26 24 23 25 26 29 31 33 34 33 32 31 31 32 35 41 45 50 56
6 7 7 8 8 6 6 6 6 7 6 6 7 7 7 7 7 8 8 8 30 78 103 98 101 100 100 101 90 96 102 77 63 69 70 65 62 54 41 38 38 34 37 36 31 29 26 27 29 31 35 39 42 42 42 43 43 43 44 43 40 34 32 31 31 32 31 28 25 24 25 26 26 27 29 31 32 33 33 32 31 29 31 35 38 45
6 6 7 7 7 6 5 5 6 7 7 6 7 7 8 8 7 8 8 8 19 62 99 100 99 101 100 100 94 98 98 75 65 70 73 70 65 59 45 38 38 34 36 38 33 31 28 27 28 29 34 37 41 42 42 44 44 45 45 46 46 42 39 37 35 37 36 33 29 26 27 28 29 27 26 26 28 32 34 34 33 31 31 32 35 40
7 6 7 6 7 6 5 5 5 6 7 7 7 7 8 7 8 8 7 10 12 40 89 102 99 101 100 100 97 99 93 70 64 69 70 72 68 63 51 39 40 36 34 38 37 34 30 28 29 29 33 36 39 41 42 43 43 44 45 47 48 48 47 44 41 42 43 42 37 32 30 29 31 30 27 26 25 29 33 35 35 34 33 33 35 39
7 6 6 6 7 6 5 5 5 6 6 7 7 6 9 7 8 9 6 11 8 25 81 105 98 101 101 99 99 100 86 59 59 67 64 68 69 67 57 43 42 38 33 38 38 36 33 29 30 30 31 35 37 38 39 41 42 42 43 45 47 49 51 50 48 48 49 49 48 44 39 34 32 30 29 27 26 26 29 32 34 34 33 34 35 37
7 6 7 6 7 6 6 6 5 6 6 6 8 6 8 8 7 9 6 10 8 16 71 104 99 100 101 99 100 101 86 55 53 60 58 64 64 66 64 47 45 44 34 37 39 38 37 33 31 31 31 34 36 36 36 39 43 44 43 42 45 47 50 52 52 52 52 52 52 52 50 46 39 33 30 27 25 26 27 29 32 33 32 32 34 37
6 6 7 6 7 6 6 7 5 6 6 6 8 5 8 8 7 10 6 9 9 9 55 99 101 99 100 100 100 101 90 60 50 56 57 61 58 65 71 53 49 51 39 36 39 39 39 37 34 32 32 32 35 37 38 41 45 47 46 42 42 44 46 50 53 53 54 54 54 53 54 55 50 44 39 34 28 24 25 27 29 31 32 31 32 35
7 6 7 5 7 7 6 7 6 7 6 5 8 6 8 8 7 10 6 9 10 8 49 96 101 99 101 101 98 100 98 68 51 59 60 56 55 65 74 61 53 56 48 37 37 41 40 40 38 35 34 33 32 36 38 42 46 47 46 42 41 41 42 46 50 52 53 54 55 54 54 56 56 53 50 47 41 32 25 24 27 29 30 31 31 32
9 8 8 6 6 6 6 7 6 7 6 5 7 6 7 8 8 10 6 10 8 11 62 101 100 101 101 99 101 102 101 77 56 62 61 50 52 66 75 67 56 58 59 44 36 41 41 40 42 38 36 36 34 34 35 39 44 44 43 41 39 39 39 41 45 47 50 52 54 54 54 54 56 56 55 55 54 48 36 26 25 26 28 30 31 31
10 9 9 7 7 6 6 7 6 7 6 6 6 6 8 7 8 10 7 11 6 15 72 107 98 101 95 86 98 103 101 91 71 64 58 43 46 65 74 69 59 58 65 56 39 38 41 40 42 41 39 38 36 35 35 36 39 42 42 39 37 38 38 39 41 43 45 48 51 52 53 54 54 55 56 56 57 59 54 40 29 24 25 27 29 30
10 10 10 9 8 7 6 7 6 7 6 6 6 6 8 7 8 10 8 11 7 13 68 107 99 98 91 73 82 99 102 101 91 77 62 44 43 63 73 69 62 58 65 67 49 39 40 41 40 41 42 41 39 38 38 38 38 39 40 39 38 37 38 40 40 41 42 44 47 49 52 53 54 55 56 57 59 61 63 57 45 32 25 24 25 28
10 10 9 10 10 8 7 6 7 7 6 6 7 6 8 7 7 10 8 11 10 8 49 100 104 93 90 73 77 101 104 98 101 91 67 46 42 58 68 65 60 57 65 71 61 45 39 41 42 41 41 42 41 39 40 44 43 41 39 40 41 39 40 43 42 42 42 43 44 45 48 51 52 54 55 56 59 61 65 65 60 49 37 29 24 22
10 9 9 9 10 9 8 7 6 7 7 6 7 6 7 8 7 9 10 9 12 7 23 78 105 90 86 85 84 102 106 99 103 94 68 45 39 52 62 60 56 56 65 70 66 55 42 40 44 42 40 41 42 41 41 45 48 48 43 39 40 41 42 46 46 46 45 45 45 44 45 49 51 54 55 56 57 59 62 64 63 60 52 43 33 25
9 8 8 7 8 9 8 8 7 7 7 7 8 8 7 8 7 8 11 8 12 11 9 54 97 87 87 98 89 95 107 99 90 81 65 47 43 53 55 55 55 52 61 70 70 66 54 44 44 45 44 41 42 44 42 43 48 51 49 42 39 39 41 45 47 49 50 48 48 46 44 47 49 52 54 55 55 55 57 59 60 60 59 55 48 37
11 9 8 8 8 9 9 9 7 7 8 7 8 9 6 8 8 7 11 9 12 14 8 44 90 85 88 100 78 80 103 93 74 66 59 48 50 59 52 49 58 54 56 68 73 75 67 52 46 47 48 45 44 46 44 45 48 48 49 46 44 41 38 40 43 46 51 53 53 50 46 46 49 52 53 53 52 52 52 54 56 57 59 59 56 50
12 10 9 9 8 9 9 9 8 7 8 8 7 9 7 8 8 6 10 9 11 15 8 38 84 78 77 91 71 68 91 86 69 60 56 56 61 65 56 50 59 57 53 61 71 81 78 64 52 47 50 49 46 46 46 47 49 46 44 45 46 46 43 42 42 44 50 56 57 54 50 49 50 51 54 54 52 51 50 50 51 54 56 58 58 54
13 10 11 11 9 10 9 10 10 7 8 8 7 9 7 7 9 7 10 9 10 17 10 31 81 82 74 93 81 65 75 73 62 59 63 69 69 68 66 63 63 59 53 54 64 80 85 74 60 50 49 52 49 47 47 44 44 43 42 43 44 46 46 46 48 48 50 55 60 61 57 53 54 54 53 56 56 55 54 51 48 48 50 54 56 54
13 12 13 12 11 10 9 10 11 8 8 9 8 9 8 7 9 7 9 11 8 17 16 24 70 92 87 101 94 71 69 63 55 60 65 70 74 75 76 74 69 61 54 51 56 74 85 80 71 57 49 52 53 51 48 43 41 41 41 42 44 45 47 48 52 56 59 60 66 72 67 57 55 57 56 57 58 58 59 57 52 48 46 47 50 50
15 14 14 14 12 10 10 10 12 9 8 9 8 9 9 8 11 8 8 12 7 14 20 20 56 95 98 102 101 86 76 64 56 61 64 75 91 89 76 69 66 62 59 55 55 66 76 77 75 66 51 48 53 52 48 44 40 39 40 41 44 46 47 49 51 56 61 62 64 72 76 70 63 61 61 60 59 60 61 62 61 55 49 45 44 43
16 16 15 15 13 10 10 10 12 12 8 9 8 8 11 11 12 11 8 11 9 11 18 19 49 95 103 97 102 100 89 72 62 63 68 88 103 89 67 60 61 63 64 63 60 63 68 69 73 74 60 49 52 54 50 46 42 42 43 42 44 47 49 52 52 52 55 55 54 59 68 72 70 68 67 65 61 60 60 61 64 63 58 51 44 40
16 18 16 16 15 11 11 11 12 13 10 9 9 8 12 12 10 11 9 10 10 11 14 15 39 85 105 99 98 101 99 87 79 77 74 82 93 81 62 57 60 65 69 72 73 71 72 72 75 83 79 61 57 60 55 50 47 48 49 49 49 50 50 52 55 55 54 53 50 49 50 53 55 59 64 67 69 69 65 60 59 59 58 56 50 42
17 18 17 16 16 13 11 11 12 13 11 10 9 9 11 10 9 10 9 10 10 10 14 13 23 60 92 103 102 101 102 97 94 99 89 75 77 76 66 60 60 64 66 69 74 72 75 83 86 93 97 82 67 61 58 57 58 59 62 62 59 58 56 56 59 60 59 59 56 52 48 46 45 47 51 57 68 75 72 63 56 53 52 53 53 48
18 17 17 15 16 15 12 12 13 13 12 11 9 10 11 9 9 10 9 10 9 10 14 13 24 53 74 86 95 101 107 104 96 105 107 89 78 75 71 64 58 60 62 63 71 73 71 79 84 86 92 91 76 61 56 62 66 66 71 76 72 69 69 68 69 70 69 70 68 63 60 54 51 51 50 49 54 60 62 60 58 56 54 51 50 50
20 17 17 16 16 16 13 12 14 13 13 13 10 10 11 9 10 11 10 9 9 11 12 14 43 83 88 77 83 96 109 107 85 84 103 106 95 84 75 65 60 64 69 71 79 81 72 72 80 83 88 93 88 71 57 55 59 58 62 74 80 82 83 81 78 77 77 76 73 70 67 62 57 57 57 56 55 56 58 59 58 58 57 53 49 49
20 18 17 17 15 16 15 12 14 14 13 14 12 11 12 11 10 11 12 9 9 12 10 18 61 103 103 92 95 99 105 101 73 62 88 110 110 97 80 68 67 70 71 69 70 70 65 65 74 83 89 96 98 89 72 59 57 57 55 58 69 75 74 69 66 67 73 77 76 74 72 68 66 64 62 63 64 65 66 66 64 61 59 54 49 48
19 20 17 17 17 16 16 14 13 15 14 13 14 12 11 12 11 10 12 9 10 13 8 23 73 106 100 98 104 100 102 101 76 62 82 101 103 100 86 70 68 71 69 65 59 56 58 61 66 78 87 95 101 99 88 71 60 62 64 61 63 64 58 54 57 62 69 73 76 80 83 82 82 81 77 76 77 78 77 74 72 72 69 65 56 49
19 20 18 16 18 16 16 16 14 14 16 14 14 14 11 13 13 11 12 10 9 14 9 23 76 108 99 98 104 98 101 103 84 73 89 100 97 101 99 80 68 70 72 68 57 50 56 64 71 80 84 87 94 98 97 86 68 60 64 65 65 67 67 67 71 72 70 68 69 76 86 94 99 98 93 93 96 96 93 86 81 77 74 75 73 64
27 19 20 16 17 17 15 17 16 14 17 15 15 16 13 14 14 12 13 11 9 14 10 23 76 111 102 98 103 98 100 104 89 76 89 104 101 100 105 96 83 77 74 70 59 47 52 64 74 82 86 85 87 90 93 92 81 65 59 60 62 67 73 77 80 77 70 68 69 71 80 92 100 102 102 103 103 101 99 98 95 88 80 78 82 79
45 19 21 17 16 18 15 16 18 16 17 17 16 17 15 15 16 13 14 12 10 14 9 18 69 109 104 98 104 100 98 105 95 76 77 96 103 101 102 100 96 88 75 67 60 48 46 59 73 84 92 90 82 76 77 81 82 71 60 59 61 61 66 73 78 76 70 70 73 75 80 84 87 93 102 105 102 96 95 100 104 103 96 90 88 86
68 27 20 19 15 17 16 15 18 18 18 18 17 17 16 16 16 15 15 12 9 14 11 13 53 99 105 98 103 102 98 102 101 85 74 79 90 100 104 99 98 97 84 71 63 51 46 54 68 83 93 95 86 75 69 70 73 70 64 65 68 67 67 70 73 72 71 73 77 81 86 84 83 93 102 103 102 98 94 98 104 106 105 102 99 94
85 44 22 19 16 15 15 15 17 19 19 19 19 18 17 17 17 15 16 14 10 12 13 10 31 77 103 102 100 102 100 99 102 97 85 76 77 93 105 100 98 100 95 88 75 57 50 54 63 77 89 95 94 85 75 71 70 69 68 67 69 69 68 70 72 73 78 86 94 97 96 90 89 98 102 100 101 102 99 97 98 104 108 105 102 102
89 64 30 19 17 15 14 16 17 19 20 20 20 20 18 17 18 17 15 15 12 11 14 12 15 45 88 105 100 100 102 100 100 101 97 86 78 91 104 101 100 101 100 100 88 66 61 69 74 80 85 87 88 87 84 76 67 67 70 68 66 65 65 70 76 79 80 84 94 100 94 85 86 95 102 102 100 100 101 99 97 103 108 104 98 100
79 76 44 22 18 16 13 15 16 18 21 21 20 20 20 18 18 18 16 14 14 11 11 15 12 20 64 103 104 98 101 101 99 101 104 96 84 90 104 103 101 103 101 103 96 76 74 87 91 93 94 88 82 80 80 79 74 69 66 62 59 56 56 61 71 79 79 73 74 80 75 67 68 75 85 96 100 100 101 101 101 102 104 104 100 100
64 76 59 31 18 17 14 13 15 17 20 22 22 20 20 20 18 19 18 14 15 14 10 14 15 12 43 91 106 99 100 102 100 98 101 100 91 90 101 103 101 102 101 102 97 83 82 94 98 102 104 97 86 77 69 69 72 63 50 51 62 69 72 76 81 92 97 87 81 82 78 71 69 67 68 75 85 95 100 98 98 101 101 101 102 103
51 67 68 44 22 17 16 13 13 17 19 21 23 21 19 21 20 19 20 16 14 16 11 12 18 12 24 71 102 99 97 101 102 99 95 94 93 91 96 102 103 103 103 102 99 89 86 95 101 103 105 100 92 80 65 59 62 59 56 68 85 93 93 93 95 101 106 98 91 92 92 90 88 83 75 69 70 79 89 91 94 100 101 99 100 102
42 54 67 57 32 18 17 15 12 14 18 20 22 22 19 20 21 19 20 18 14 17 14 11 18 13 16 62 101 100 95 98 99 101 97 89 88 91 93 98 103 105 103 102 103 97 91 97 102 101 102 102 93 79 73 79 85 86 88 92 94 96 96 93 94 99 103 100 95 95 97 98 97 94 89 85 79 76 80 88 95 102 101 96 99 102
39 44 57 61 46 25 16 17 14 12 17 20 21 23 20 19 21 19 20 19 14 16 15 11 17 14 17 62 102 99 96 102 99 101 102 87 76 81 89 94 99 104 104 101 102 101 98 101 104 100 99 103 97 83 83 96 102 101 101 99 95 97 99 95 94 97 101 102 101 101 99 95 97 100 97 95 92 83 80 87 95 102 101 93 92 97
40 39 44 55 56 40 20 17 17 13 15 18 20 23 21 19 21 20 20 20 15 15 16 13 17 14 16 57 101 102 96 102 98 98 104 94 75 69 77 87 95 101 104 101 100 102 101 103 107 103 99 101 101 94 91 98 103 103 103 102 100 101 100 96 98 101 102 102 102 103 102 98 96 98 99 100 98 91 90 91 88 89 94 94 94 98
44 39 38 44 53 49 31 20 17 15 15 16 18 22 22 20 20 20 20 20 17 16 17 14 17 16 13 44 92 106 99 99 99 97 101 103 93 76 68 77 91 98 101 100 101 102 102 101 103 104 101 100 102 101 97 99 103 105 104 102 101 101 101 100 101 103 103 103 102 100 101 101 96 90 87 84 73 65 70 76 76 79 87 92 97 101
49 42 39 39 44 48 40 28 20 16 14 15 16 20 22 20 20 20 20 21 18 17 18 15 16 17 13 31 77 106 102 95 100 102 99 100 103 93 74 69 82 96 102 103 103 103 100 99 99 101 102 102 102 102 101 100 102 104 104 102 102 101 101 100 100 102 101 101 101 100 99 100 99 90 75 57 47 57 72 75 76 87 93 90 93 100
55 46 41 39 40 43 42 35 25 18 15 14 14 18 21 20 20 20 20 21 20 18 18 16 15 17 13 20 58 98 106 96 97 104 102 97 100 100 85 68 71 87 100 105 106 104 100 101 102 101 102 104 102 101 103 102 100 101 102 101 101 101 101 99 99 101 101 99 100 101 99 100 101 97 82 58 50 72 96 97 92 98 102 96 94 99
60 52 44 40 40 41 41 37 30 21 15 14 13 16 19 20 21 21 20 21 21 19 19 18 15 17 16 13 33 73 100 103 99 99 100 98 98 100 91 72 65 75 91 102 107 104 100 102 104 100 99 102 99 97 101 102 100 100 101 100 99 99 100 100 100 100 101 101 101 101 100 100 100 101 98 82 66 70 84 92 94 97 99 99 95 95
63 58 49 42 41 42 41 37 31 23 16 13 12 14 17 19 21 21 19 21 21 19 20 20 17 17 18 14 17 38 71 97 105 99 94 94 96 100 98 85 68 64 76 93 105 105 100 100 103 98 96 98 96 90 92 98 99 100 100 100 101 101 100 100 101 102 102 101 101 101 100 101 101 100 101 96 87 83 81 79 81 86 91 95 91 86
64 60 54 46 42 43 43 38 31 24 19 15 13 13 15 17 20 21 20 20 22 21 20 21 20 18 18 18 15 17 32 59 82 90 91 95 99 99 99 98 84 67 64 75 92 104 105 101 102 102 96 94 95 93 91 93 96 100 102 101 101 101 100 100 101 102 101 99 99 100 100 101 102 99 98 97 96 98 95 86 79 79 82 86 87 82
64 60 56 49 43 42 43 38 31 25 20 16 13 12 13 15 17 20 20 20 21 21 20 21 22 20 19 18 18 18 18 23 39 56 66 78 93 97 94 99 100 87 72 67 74 93 105 104 102 104 100 93 91 93 95 95 96 99 102 102 101 100 100 102 102 101 100 99 98 100 101 101 101 99 99 101 100 99 101 100 93 85 78 77 80 77
64 61 56 50 44 42 42 39 31 24 19 16 14 11 12 14 16 18 20 20 21 21 21 22 23 23 23 20 17 19 19 17 26 43 48 48 61 74 79 87 99 102 94 80 69 74 91 101 103 103 102 99 95 93 95 98 99 99 100 101 101 101 100 101 101 100 100 100 99 100 100 100 101 100 100 101 101 98 99 101 101 97 89 79 73 68
67 62 57 53 46 42 43 41 31 22 19 17 14 11 11 13 14 17 18 19 20 21 21 22 23 23 24 25 22 20 19 16 24 43 55 49 45 53 64 74 86 96 102 99 84 69 71 86 100 105 101 99 100 99 98 99 99 99 101 101 100 100 100 101 101 100 99 100 100 100 100 100 100 101 101 101 101 100 100 99 100 101 99 92 83 76
72 64 59 55 49 45 47 42 30 21 18 16 14 13 11 12 13 16 20 22 21 21 22 21 23 28 30 28 25 24 23 19 18 32 56 66 60 60 71 81 85 86 92 101 100 85 70 68 80 97 103 101 99 100 100 101 101 99 100 101 101 100 100 100 101 100 100 100 99 99 100 101 100 100 101 101 100 100 100 100 100 100 100 100 99 96
75 67 61 58 51 48 50 43 30 21 16 14 15 13 9 13 14 15 24 33 28 27 33 26 18 26 34 30 25 24 24 24 20 22 41 66 75 77 83 92 95 91 89 94 101 100 89 72 64 74 90 99 102 101 99 99 100 100 100 100 99 100 101 100 100 101 101 100 100 99 100 100 100 100 100 101 101 101 100 100 101 101 100 99 100 101
77 70 64 60 54 51 51 44 30 20 15 14 15 12 10 15 14 17 41 57 43 38 60 67 44 27 26 26 25 26 23 24 25 21 24 47 74 88 90 94 101 102 95 94 97 100 100 91 74 65 69 79 90 99 102 101 99 98 100 101 100 99 100 100 100 100 101 101 100 100 101 100 100 100 100 100 101 100 100 100 100 100 101 101 101 101
80 72 68 63 57 54 53 44 30 19 15 14 13 14 14 13 17 39 76 91 66 48 71 98 89 61 40 28 26 30 27 23 26 26 21 29 57 83 91 91 97 103 102 100 100 98 99 100 94 83 74 70 71 79 93 103 103 99 97 99 101 100 100 99 99 99 100 102 102 100 100 100 100 100 100 101 101 100 100 101 100 99 100 100 99 100
Wind_Speed
58 58 58 59 60 61 62 61 59 59 59 58 57 57 56 54 52 49 46 43 39 34 30 28 30 31 29 26 24 23 22 19 16 13 11 8 4 2 2 5 7 10 12 12 13 15 17 20 22 23 23 23 23 24 24 25 26 27 28 29 30 30 31 32 32 33 33 34 34 34 34 34 33 33 32 31 31 31 29 27 26 24 23 22 21 21
60 61 63 63 61 60 61 61 59 59 60 59 59 59 58 57 55 52 49 47 43 39 33 29 30 32 31 28 26 26 26 21 17 16 14 10 7 5 4 5 6 8 11 11 11 13 14 17 18 20 21 22 22 23 23 24 25 26 27 28 29 30 31 31 32 33 33 33 34 34 35 35 34 34 33 32 32 33 32 30 29 27 26 24 23 23
60 63 65 64 62 60 61 60 59 60 61 61 61 61 61 59 57 55 52 50 47 43 37 32 31 32 33 31 29 29 27 23 20 18 16 13 9 7 6 5 6 8 10 11 10 11 12 14 16 17 18 20 21 21 22 22 24 25 26 27 27 29 30 31 31 32 32 33 33 34 34 35 35 35 34 34 34 34 33 32 31 30 29 27 26 25
61 64 65 64 64 63 62 60 59 60 62 62 62 62 62 61 59 57 55 52 50 47 40 34 33 34 35 35 33 31 29 26 24 21 18 16 11 9 9 7 7 8 9 10 10 10 11 12 13 15 16 18 19 20 21 21 22 24 24 25 26 27 28 29 30 31 31 32 32 33 34 35 35 35 35 35 35 35 34 33 32 32 31 30 29 28
60 62 63 64 66 66 64 60 59 61 63 64 64 64 64 63 61 59 57 55 53 51 43 35 34 36 37 37 36 34 32 30 27 23 21 18 15 12 11 9 8 8 8 10 10 9 10 10 11 13 15 16 17 18 19 20 21 22 22 23 24 25 26 27 28 29 30 31 31 32 34 35 35 35 36 36 36 36 35 34 33 32 32 31 30 30
59 59 61 64 67 69 68 64 61 61 63 64 65 65 65 65 64 62 60 58 55 54 48 38 35 38 39 39 38 36 35 32 29 26 23 21 18 15 12 11 9 9 8 9 9 9 8 9 9 10 12 14 15 16 18 19 19 20 20 21 22 23 24 25 26 27 28 29 30 31 32 34 35 36 37 37 37 37 36 36 34 33 32 31 30 30
59 59 61 64 67 70 71 69 66 64 63 65 67 67 67 67 66 65 62 61 58 56 53 43 38 39 40 40 40 38 36 34 31 28 25 24 21 16 14 13 12 10 9 9 10 9 8 8 8 8 10 12 13 15 15 16 17 18 19 20 20 21 23 23 24 25 26 27 28 29 30 31 33 35 36 37 38 38 37 37 36 35 33 32 31 30
61 63 63 64 67 71 74 74 71 68 65 66 68 69 69 69 68 67 65 63 60 58 57 48 41 41 41 40 40 40 38 35 32 30 28 27 23 18 17 16 15 13 11 10 10 10 8 8 8 8 8 9 11 13 14 15 15 17 19 19 19 20 21 22 23 24 24 25 26 27 28 29 31 33 34 36 37 38 38 38 37 36 35 34 32 31
63 66 66 65 66 71 76 78 76 72 68 67 68 70 71 71 71 69 67 66 63 60 59 51 44 43 43 42 41 41 40 37 35 34 32 29 25 21 20 18 17 16 14 12 11 11 10 8 8 8 8 8 9 11 13 14 15 16 17 18 18 19 20 21 22 23 23 24 25 25 26 27 29 30 31 33 35 36 37 37 38 37 37 36 34 32
62 65 67 68 69 73 78 81 79 75 72 69 69 70 72 73 72 71 69 68 66 64 61 53 47 47 47 46 44 41 39 38 37 36 34 32 27 24 23 21 19 18 17 14 13 12 11 9 8 8 8 8 7 9 12 13 14 15 16 17 17 18 19 20 21 22 22 23 24 24 25 26 27 28 29 30 32 34 35 36 37 37 37 37 36 34
61 64 67 72 75 77 80 82 81 79 76 71 69 71 73 74 74 73 71 71 70 68 64 56 50 52 51 48 45 41 39 39 39 38 36 33 29 26 26 25 21 20 19 17 15 14 14 12 9 8 9 8 8 8 10 12 14 14 14 16 16 17 18 19 20 21 22 22 23 23 23 24 25 26 27 28 29 31 33 34 35 36 36 37 36 35
59 63 67 72 77 80 81 82 83 82 79 74 71 71 73 75 75 75 74 74 73 71 68 60 54 55 53 49 47 44 43 42 41 40 39 36 32 29 29 28 24 22 20 19 17 16 16 14 11 9 8 9 9 8 9 11 13 13 13 14 16 16 17 19 19 20 21 22 22 22 22 23 23 24 25 26 27 28 30 31 33 34 35 35 35 35
54 59 65 71 77 81 83 83 84 84 81 76 73 72 74 76 77 76 76 76 74 73 71 64 58 59 56 52 50 47 46 45 43 43 41 37 34 32 30 30 27 24 22 21 19 18 17 16 14 12 9 9 9 9 9 10 10 11 12 13 14 15 16 18 19 19 19 20 21 21 22 22 22 22 23 24 25 26 27 29 30 32 33 34 34 34
48 54 60 67 76 82 84 85 85 86 84 80 78 76 76 78 78 78 76 76 75 73 72 67 63 63 60 56 53 50 49 49 47 45 43 38 36 33 32 30 28 26 24 23 21 19 18 17 16 14 12 10 9 9 9 8 8 9 10 11 12 13 14 15 16 17 17 18 19 20 21 21 21 21 22 23 24 25 26 27 28 30 31 32 33 33
43 48 54 62 72 81 87 88 88 88 87 86 83 80 78 78 79 79 77 77 76 73 71 69 66 65 64 61 58 53 52 51 48 46 43 39 38 35 33 31 30 28 27 25 24 22 20 19 18 16 14 12 10 10 10 8 6 7 9 10 11 12 12 13 13 14 15 15 16 17 18 19 20 21 21 21 22 23 24 25 26 27 28 30 31 32
37 42 49 58 68 79 88 91 90 89 89 88 84 80 78 79 80 80 79 78 77 74 73 71 68 67 66 63 60 57 53 51 49 46 43 40 39 37 35 34 33 32 30 29 28 26 23 22 21 19 17 15 13 11 10 9 7 6 7 9 11 11 11 11 11 11 11 12 13 14 15 16 17 19 20 20 21 22 22 24 25 25 26 27 28 30
32 37 45 55 65 75 87 93 92 91 90 88 85 83 80 79 79 79 79 79 78 75 74 73 70 68 66 62 61 59 56 53 50 46 43 41 40 39 38 36 36 35 34 33 32 29 26 25 23 21 20 18 16 14 12 10 9 7 7 7 9 10 11 11 11 10 10 10 10 11 12 13 15 16 17 18 19 20 21 22 23 24 24 25 25 27
28 33 42 52 62 73 84 93 95 94 92 89 88 85 81 78 78 79 79 80 80 77 75 75 72 69 65 62 60 60 58 55 51 48 45 43 42 41 40 38 37 37 36 34 34 31 29 27 26 24 23 21 19 17 15 14 11 9 7 6 7 9 10 11 11 11 11 10 10 10 10 11 12 13 14 15 16 18 19 20 21 21 22 23 23 24
24 30 39 49 59 72 83 93 96 95 92 91 89 85 80 78 79 80 81 81 80 78 76 75 74 70 65 62 60 60 59 56 52 49 47 45 44 44 42 39 38 38 37 34 33 33 31 30 29 27 25 23 21 20 18 16 14 12 9 7 6 6 8 10 11 11 11 12 12 12 11 10 10 10 11 12 13 15 16 17 18 19 20 21 21 22
21 27 36 46 57 69 82 91 96 96 93 92 90 87 84 84 84 82 81 81 80 79 77 76 75 72 67 64 62 61 60 57 54 51 49 48 48 46 43 41 39 39 38 35 34 34 33 32 30 28 26 25 23 22 20 18 16 14 12 10 7 6 5 6 7 8 9 9 9 9 10 10 9 9 9 9 11 12 13 14 15 16 17 18 19 20
19 25 33 43 53 65 78 89 95 96 95 93 91 90 89 89 87 84 81 80 80 80 79 77 77 75 71 67 65 62 60 59 57 53 52 51 50 48 46 43 40 40 40 37 35 35 34 33 31 29 28 27 25 24 23 20 17 15 13 11 10 8 7 5 5 5 4 4 4 4 4 5 6 7 7 7 8 9 10 11 11 12 13 14 16 17
17 23 31 40 49 60 73 86 95 97 96 94 93 92 90 89 85 82 80 79 79 80 79 77 77 77 75 72 68 63 60 60 59 56 54 54 53 51 48 45 42 42 41 39 38 37 36 35 34 32 30 29 28 27 25 22 19 17 15 14 12 11 10 8 7 7 6 5 4 3 2 1 1 2 4 5 5 6 6 7 8 9 10 11 12 13
15 20 30 38 46 56 69 84 94 98 97 95 94 92 90 87 83 81 80 79 78 78 78 77 76 76 76 75 71 66 61 61 61 59 57 56 54 53 52 49 46 44 42 41 40 39 39 38 37 36 34 32 32 30 28 26 24 22 19 18 16 14 12 11 10 9 8 8 8 7 7 6 5 3 1 0 1 1 2 4 5 6 7 8 8 9
14 17 26 35 43 53 66 81 93 98 98 96 94 92 89 87 84 82 80 79 78 78 78 77 75 74 73 72 70 67 63 64 65 63 60 57 55 55 55 52 49 47 45 44 44 43 42 40 38 37 36 34 33 32 31 29 27 26 24 23 21 18 16 16 14 13 12 11 11 10 10 10 8 7 6 5 4 2 1 1 2 3 3 4 5 5
14 14 22 31 40 50 62 78 91 97 98 96 94 91 89 87 85 83 81 79 78 78 79 78 76 74 71 69 69 67 64 65 69 67 62 58 55 54 55 54 51 50 50 48 47 46 45 43 40 39 37 36 35 35 33 31 30 28 27 26 24 23 21 20 18 17 16 15 14 14 13 13 11 10 10 9 8 7 5 4 3 3 3 3 3 3
15 14 19 27 37 47 59 73 88 96 98 96 94 92 89 87 85 84 82 80 79 79 80 80 78 76 73 69 69 68 64 64 70 68 60 55 54 51 53 56 55 53 53 52 50 48 47 44 41 39 39 38 38 37 36 34 33 31 30 28 26 25 23 21 20 19 18 18 17 16 16 16 15 14 13 12 12 11 10 8 7 7 6 6 6 5
17 14 17 24 33 43 54 68 83 93 96 95 94 91 88 87 86 84 83 81 80 80 81 81 80 79 76 70 68 68 65 63 69 68 56 49 52 53 54 57 58 56 55 54 52 49 48 45 42 40 41 40 40 40 39 37 35 34 32 30 28 27 25 24 23 22 22 21 20 19 18 18 18 17 17 16 15 15 14 13 12 11 10 9 9 8
21 15 15 21 30 40 51 63 78 90 95 95 93 91 88 87 87 86 84 83 81 82 82 82 81 81 78 72 68 67 65 65 70 70 60 49 47 51 54 56 58 59 57 55 54 52 49 46 44 42 42 42 42 42 41 40 38 36 35 33 30 29 28 27 26 26 25 24 23 22 22 21 20 20 20 20 19 18 18 17 16 15 14 12 12 12
25 17 15 19 27 37 48 60 73 85 93 94 93 92 89 88 88 87 86 84 83 83 84 83 83 82 78 74 72 69 67 67 70 73 70 61 50 46 49 52 54 58 60 58 55 53 52 49 46 44 43 43 44 44 43 42 40 38 37 35 33 31 30 29 29 28 28 27 27 26 26 25 23 23 23 23 23 22 21 20 19 19 18 16 15 14
26 21 16 18 25 35 45 57 70 82 90 93 93 92 90 89 89 88 87 85 84 84 84 84 84 83 79 75 74 72 69 70 72 73 75 73 63 54 49 46 47 50 56 61 59 56 54 52 49 47 45 43 43 44 44 43 42 41 39 36 35 34 33 32 32 31 31 31 31 30 29 28 27 26 26 26 26 25 24 23 22 22 22 20 18 17
25 23 19 18 23 33 43 53 66 79 88 92 93 91 90 89 89 89 88 86 85 84 84 85 85 85 81 76 75 74 71 71 73 75 76 75 72 67 58 50 47 47 48 55 61 59 55 54 51 49 47 45 43 43 44 44 43 42 39 37 36 36 36 35 35 34 34 34 34 34 33 31 30 29 27 27 27 28 28 27 26 24 23 22 21 20
20 24 20 19 22 30 41 51 63 76 85 91 92 91 90 89 90 90 89 87 85 85 85 86 86 86 84 77 73 73 73 73 74 75 76 75 73 74 70 61 56 52 46 48 57 61 57 54 53 50 48 47 45 44 44 44 44 42 41 39 39 38 38 38 38 37 37 37 37 37 37 35 33 31 30 28 27 28 29 29 28 27 25 23 22 23
16 21 21 19 21 27 37 49 60 73 83 89 91 91 90 90 90 90 89 88 86 85 86 86 86 87 86 80 73 71 71 72 75 76 76 76 74 75 76 71 64 58 50 46 52 59 58 54 53 51 48 46 45 43 43 44 43 42 41 40 40 40 40 41 42 41 41 40 39 39 39 37 35 34 33 31 29 28 28 29 29 30 29 28 26 26
14 17 20 19 20 23 33 45 57 70 81 88 91 92 91 91 91 91 90 89 87 86 86 87 86 87 87 82 73 67 65 66 73 78 77 77 77 76 75 74 71 66 59 52 52 57 59 56 53 51 49 46 44 44 43 42 41 40 39 38 38 40 41 43 44 44 44 43 41 41 41 40 39 38 37 35 34 33 31 30 29 30 31 33 33 30
15 14 18 18 18 21 28 40 53 66 78 88 92 93 92 92 92 92 92 90 89 87 87 87 86 87 88 84 73 65 62 60 65 74 79 80 80 79 76 74 72 71 68 62 59 59 59 57 54 52 50 47 45 43 42 40 39 39 38 38 38 39 40 42 42 43 44 43 41 40 41 42 42 42 42 40 38 37 36 33 33 33 34 36 36 34
17 14 14 17 16 19 25 33 47 62 75 85 92 93 93 93 93 93 93 92 91 89 87 87 87 87 88 85 76 68 64 60 61 68 77 82 83 82 80 77 73 71 69 67 64 62 61 58 56 54 51 49 47 45 40 37 37 37 37 37 38 36 37 40 41 40 40 42 41 39 40 43 44 43 42 42 40 40 40 37 36 37 37 37 36 36
19 16 12 14 16 17 23 30 41 57 70 81 90 93 94 94 94 94 94 94 92 90 88 87 87 88 89 87 81 73 67 63 63 67 74 82 85 84 82 81 77 72 69 67 64 63 62 60 58 56 53 50 49 48 43 39 38 40 39 38 39 37 35 38 42 43 43 44 45 43 42 46 46 42 40 41 41 41 42 42 42 42 42 41 39 38
20 18 14 11 13 15 20 28 37 50 65 78 87 93 95 95 95 95 95 94 93 91 89 88 89 89 91 91 86 78 74 72 70 70 73 78 85 87 84 82 80 75 70 66 62 61 62 62 61 60 57 53 52 52 49 45 44 46 45 45 45 44 41 41 42 44 46 47 48 47 46 48 49 48 46 45 44 43 43 45 47 45 44 45 43 41
22 21 18 13 11 13 16 25 34 44 59 73 84 91 95 96 96 95 95 94 93 91 89 89 90 90 92 94 92 85 82 82 77 74 74 75 79 86 87 83 81 78 73 68 64 61 61 61 61 62 62 59 57 57 54 51 50 51 51 52 52 52 52 52 50 49 51 52 51 50 49 50 53 56 55 53 52 52 52 52 52 49 46 47 47 46
24 22 20 17 13 12 14 21 31 40 51 66 80 89 95 97 97 96 95 94 94 93 91 91 92 92 93 96 97 93 89 89 83 78 78 77 74 80 86 85 83 81 77 73 69 65 62 58 57 61 65 65 63 62 59 55 54 55 56 57 57 57 58 60 60 58 58 59 58 54 51 51 55 59 60 57 57 59 58 57 56 55 53 53 52 51
25 24 22 20 17 14 14 17 27 37 45 58 73 86 94 97 97 96 96 95 95 94 93 92 92 94 95 97 100 98 94 93 90 82 80 80 74 74 81 85 85 84 81 76 72 69 66 61 60 63 66 66 66 65 64 61 59 60 62 62 63 63 63 63 64 64 63 63 63 60 57 56 58 60 61 60 59 60 60 59 59 60 59 59 57 55
26 25 24 22 20 17 16 17 23 34 42 52 66 81 92 96 97 98 97 97 97 95 95 94 93 94 96 97 101 102 99 97 96 88 82 81 77 72 75 82 85 85 84 79 75 72 70 68 68 69 68 67 68 68 68 67 67 66 67 67 67 68 68 68 67 67 66 65 65 64 64 64 64 64 64 63 63 64 64 64 63 62 61 61 59 58
27 26 25 24 22 20 19 18 21 31 40 47 58 73 87 94 98 100 99 97 98 97 95 95 93 94 96 97 101 104 103 101 101 96 87 83 80 74 71 76 82 85 85 82 79 76 73 72 72 73 73 72 71 71 71 71 72 72 71 71 71 71 71 71 72 72 72 71 69 68 67 67 68 68 68 68 68 68 68 68 68 66 64 63 62 62
27 27 26 25 23 22 21 20 20 27 37 44 52 64 79 91 98 100 100 98 98 97 96 95 95 94 96 97 99 103 105 104 104 102 96 89 84 79 73 72 76 82 85 84 82 80 78 76 73 73 75 77 76 74 72 73 75 77 77 76 75 75 74 74 75 76 77 77 76 74 71 69 69 69 70 70 70 70 69 70 71 70 68 66 65 65
27 27 26 25 24 23 22 22 20 25 34 42 48 57 71 86 96 100 100 99 99 98 96 95 95 95 96 97 98 100 103 104 104 104 102 98 92 88 82 74 72 77 82 85 86 84 83 82 80 77 77 78 79 78 76 75 76 79 81 81 80 79 78 78 78 77 78 78 79 78 77 74 72 71 71 71 71 72 71 71 72 73 73 72 71 70
28 28 27 26 25 24 23 23 21 23 30 38 46 53 63 77 90 97 100 100 100 99 97 96 96 95 95 96 98 99 100 101 102 101 101 102 100 96 92 86 79 75 78 84 87 88 87 87 86 85 82 80 81 81 81 79 79 80 83 84 84 83 82 83 82 81 80 80 80 80 80 79 77 75 75 75 76 77 77 77 76 77 78 77 76 74
28 28 28 27 26 25 25 24 21 21 28 36 43 49 57 68 81 91 98 99 99 98 97 97 95 95 95 96 97 98 98 99 100 99 98 99 99 97 96 94 90 84 79 81 86 89 91 90 90 90 88 86 85 84 84 83 82 82 84 86 87 87 86 86 86 86 85 84 83 83 83 83 82 81 81 82 82 83 84 84 83 82 81 81 80 79
29 28 28 28 26 25 26 26 22 21 26 34 41 46 52 60 70 81 88 92 96 97 97 98 96 92 93 96 97 98 98 98 99 100 98 98 97 96 93 94 95 94 88 83 84 87 91 93 94 93 92 90 88 88 87 87 86 86 86 88 90 91 91 91 90 90 89 89 88 87 87 87 87 87 87 87 88 88 89 89 89 88 87 86 86 86
28 28 28 28 26 25 27 26 22 20 25 32 39 44 49 53 61 69 71 73 83 86 85 91 97 95 94 98 99 99 99 98 99 100 99 98 98 96 94 92 93 96 96 92 87 86 89 93 95 96 95 94 92 91 90 89 89 89 89 90 91 93 94 95 95 94 93 93 92 92 91 91 91 91 90 90 91 92 92 92 92 92 92 92 91 90
28 28 28 27 26 25 26 26 21 18 23 31 37 42 47 48 54 60 58 58 70 73 66 70 86 96 99 100 99 98 99 99 99 100 100 101 100 98 96 95 94 95 97 97 95 92 90 91 94 96 97 97 97 96 94 93 92 93 93 94 94 95 96 97 98 99 98 97 96 95 95 95 95 95 94 93 93 94 94 94 93 93 93 93 94 93
28 27 27 27 25 24 25 25 19 16 21 28 35 41 45 46 50 55 55 53 61 68 61 53 59 76 92 100 99 98 100 100 100 100 101 102 103 102 100 99 98 97 97 98 99 98 96 94 94 96 98 98 98 99 99 98 97 97 97 98 99 99 99 99 100 100 101 101 100 99 98 98 98 98 98 98 97 97 97 96 95 94 94 94 94 95
Wind_Direction
227 227 225 224 226 228 227 224 220 218 217 216 213 212 211 209 208 207 203 201 201 200 204 208 207 208 212 215 215 214 214 214 219 226 224 221 224 219 148 104 87 82 79 72 69 74 81 82 79 76 73 70 68 68 67 67 67 66 66 64 64 64 64 64 64 63 63 63 64 65 66 66 67 68 68 69 69 71 73 74 76 77 79 80 81 81
226 224 223 223 226 229 228 225 220 217 217 215 213 211 211 209 207 206 203 201 201 199 200 205 207 208 209 211 212 213 214 214 218 226 227 225 224 220 199 144 112 96 90 82 76 76 81 84 82 79 76 73 70 69 68 69 68 68 68 67 66 65 65 65 65 65 64 64 65 66 68 69 68 69 70 70 70 71 72 73 75 77 77 79 81 81
226 224 222 223 226 230 229 225 221 218 216 215 213 211 210 209 206 205 203 201 201 200 199 203 205 208 209 209 211 212 212 213 219 223 223 224 226 224 213 179 140 117 103 94 87 81 81 83 85 83 81 79 75 72 70 69 68 68 68 68 68 67 67 67 67 67 66 65 65 67 69 70 70 70 71 72 72 72 72 73 74 76 77 79 81 82
228 225 223 223 225 229 230 226 222 219 216 214 213 211 210 209 206 205 203 201 201 200 200 203 205 209 211 210 211 211 209 213 219 220 219 221 222 223 220 200 163 136 118 106 98 92 86 84 85 88 87 85 82 78 75 71 68 67 67 68 69 69 68 68 68 69 69 68 67 68 69 70 71 70 70 71 72 73 73 74 74 76 78 80 81 82
232 227 223 222 223 228 230 228 223 220 217 214 212 210 210 209 207 205 203 200 201 201 198 198 204 208 210 210 210 210 209 211 217 218 218 219 217 217 219 209 180 154 136 119 109 104 98 90 86 90 92 91 88 85 81 77 72 68 66 66 68 69 69 68 69 69 70 70 69 69 69 70 70 70 70 70 71 73 74 75 75 76 79 81 82 83
236 229 224 221 220 224 228 227 224 221 217 214 212 210 209 209 207 205 203 200 202 202 198 197 201 204 206 207 207 209 210 210 214 217 217 220 218 214 214 208 190 170 154 136 121 114 110 103 93 92 94 96 94 91 88 84 79 74 69 67 68 69 69 68 68 68 69 70 70 69 69 69 70 70 69 69 70 72 73 75 76 77 79 81 83 84
238 233 227 222 219 220 223 225 224 222 218 214 212 210 208 208 207 206 203 200 202 203 200 199 200 200 201 204 204 207 210 209 211 215 217 220 218 211 211 206 192 181 173 158 138 125 122 118 109 98 95 98 99 97 94 89 84 80 75 71 70 70 70 69 67 66 66 67 69 69 69 69 69 70 69 68 68 70 72 74 75 76 78 81 84 86
238 234 230 224 219 218 220 221 221 220 218 214 212 209 208 207 207 206 203 200 201 202 200 199 199 197 198 202 204 206 208 208 209 213 216 219 216 209 211 207 196 187 182 175 156 139 134 132 126 114 103 100 101 101 98 94 89 86 83 78 75 73 72 71 68 66 66 65 66 67 68 68 68 69 70 69 68 68 69 71 73 75 76 78 82 85
236 233 231 226 220 218 218 219 219 219 218 214 212 209 207 207 206 206 204 201 201 201 199 196 196 197 199 201 204 207 208 207 209 211 214 216 213 207 209 209 201 192 186 184 173 155 146 143 139 132 117 107 104 104 101 98 94 91 90 87 82 79 76 74 72 69 67 66 64 64 65 67 68 69 70 70 69 68 67 68 71 73 75 76 79 82
235 231 229 226 221 217 216 217 217 217 217 214 211 209 207 206 206 205 204 202 201 200 197 194 195 199 203 203 204 206 206 207 210 211 213 214 211 206 208 209 205 199 192 190 185 170 159 153 151 145 136 125 114 110 106 102 99 97 96 94 89 85 82 78 75 72 69 67 66 64 63 64 66 68 69 70 70 69 68 67 68 70 72 74 76 79
234 229 225 223 220 216 214 215 215 215 216 214 211 209 208 207 205 204 204 203 202 201 197 194 196 201 205 205 204 202 202 205 209 211 213 214 211 207 207 208 208 205 199 194 192 184 172 165 161 155 149 143 134 121 113 107 103 101 102 101 97 91 87 84 79 76 73 70 68 67 65 63 64 65 68 70 70 71 70 69 67 67 68 71 73 76
234 230 225 221 218 215 213 212 212 213 214 214 211 209 208 207 205 204 204 204 202 201 198 196 197 201 204 205 204 201 201 204 207 210 212 212 211 209 207 207 207 207 205 200 198 194 183 175 171 169 163 155 151 140 126 116 109 106 106 106 104 99 93 89 85 81 77 74 72 69 67 66 65 65 66 68 69 71 72 72 70 67 66 67 70 73
237 231 226 220 216 214 211 209 210 211 212 212 210 209 208 207 206 204 205 205 203 203 201 198 199 202 202 203 204 202 202 204 206 209 211 211 211 209 207 207 207 208 210 207 204 201 192 184 181 180 177 169 163 156 144 132 120 114 113 113 110 106 101 96 91 86 81 77 74 72 70 69 68 68 68 68 68 69 71 73 72 70 68 66 66 68
238 231 225 219 214 212 210 208 207 208 209 209 208 207 207 206 205 204 204 205 204 204 202 199 199 202 202 201 203 202 202 204 206 208 211 211 210 209 208 208 209 211 214 214 212 208 200 193 189 185 185 182 175 170 166 156 140 127 122 121 118 113 108 104 99 93 87 82 77 75 74 72 71 71 71 70 70 70 70 72 73 72 71 69 66 65
238 230 222 216 211 208 207 206 205 205 206 206 206 206 206 205 205 204 203 204 204 203 202 199 199 203 202 202 203 203 203 205 206 209 210 209 209 209 208 209 211 213 215 217 218 213 207 202 197 191 189 189 185 183 182 178 167 145 132 129 126 122 116 112 108 102 96 89 83 79 76 74 73 72 71 71 71 71 71 71 72 72 72 70 69 66
240 229 220 214 208 206 205 204 203 203 204 205 205 205 205 204 205 205 204 204 204 203 202 199 200 204 204 203 205 205 205 206 207 209 209 208 208 208 208 210 212 214 215 217 219 216 211 209 205 198 194 192 191 190 192 192 184 164 143 134 132 130 126 121 117 110 105 99 92 87 82 77 74 73 72 71 70 70 71 70 70 70 71 70 69 67
240 227 219 212 206 204 203 202 202 202 202 203 204 204 205 204 204 205 204 204 203 202 202 199 199 203 205 205 205 206 207 208 208 208 208 207 207 208 210 212 214 215 215 216 218 216 214 213 211 205 199 197 195 195 197 199 195 183 162 141 133 132 131 128 123 118 114 108 99 98 96 86 78 75 73 71 70 69 69 69 70 70 70 70 68 67
241 226 218 212 206 202 201 201 201 201 201 201 201 203 204 203 204 205 205 204 203 201 201 199 199 202 204 204 206 206 207 209 208 208 208 206 206 209 211 214 216 216 216 217 218 216 215 215 214 211 206 201 199 199 201 203 200 196 187 164 142 133 129 126 124 121 118 111 102 104 112 103 90 81 75 72 71 71 69 68 68 68 68 68 68 66
242 227 219 213 207 203 200 200 200 200 200 200 200 201 201 202 204 205 205 204 203 201 200 199 199 200 201 201 203 205 206 207 207 207 207 206 206 210 214 217 218 217 217 218 219 218 218 217 215 214 212 207 204 203 204 205 204 202 199 192 174 150 134 127 124 122 119 114 103 100 109 113 104 94 86 80 76 74 72 69 67 67 66 65 65 64
243 227 220 214 209 204 200 199 200 200 199 199 199 199 199 201 202 203 204 204 203 202 200 199 199 198 198 198 199 202 204 205 205 205 206 206 208 212 216 218 218 217 216 217 219 221 221 220 218 217 217 214 210 209 209 208 206 206 206 203 200 189 169 150 138 131 127 123 111 100 103 106 104 100 98 96 90 80 73 70 68 67 65 64 63 62
246 228 220 215 211 206 201 199 199 200 200 199 199 198 199 202 201 200 202 203 202 202 200 200 199 198 198 198 199 201 203 203 204 205 206 207 209 213 216 218 219 217 216 216 218 222 223 223 222 220 220 220 217 215 215 213 210 211 213 213 211 211 210 203 188 176 166 157 144 123 111 106 101 97 97 103 106 95 77 67 66 65 63 64 63 62
254 231 221 215 211 208 203 199 199 200 200 199 199 199 200 203 202 201 201 202 202 202 201 200 200 200 201 201 202 205 206 205 204 205 208 209 210 213 216 218 220 219 217 215 216 220 222 223 222 220 220 221 220 219 218 216 214 215 218 222 222 220 220 222 224 226 227 230 231 233 234 229 134 100 94 95 102 100 77 65 66 62 56 58 60 61
265 237 223 215 210 208 204 200 199 200 200 200 199 199 200 202 202 201 202 202 202 202 201 201 200 201 203 205 207 210 211 210 209 208 209 210 211 215 217 219 221 221 219 217 217 219 221 222 221 219 218 219 221 222 220 217 216 215 216 222 227 229 229 229 231 236 240 247 253 257 260 262 265 267 259 160 86 77 58 52 57 53 48 45 46 51
274 245 228 218 210 208 206 202 200 200 200 200 200 199 200 201 201 201 201 201 201 201 201 201 201 201 203 205 208 210 210 211 213 212 211 210 212 216 218 219 221 221 220 218 217 219 221 222 222 221 219 220 223 224 223 221 219 217 215 217 221 226 232 233 231 232 235 240 248 254 259 263 266 271 274 275 277 279 294 342 5 9 15 21 25 33
285 253 232 221 213 209 207 204 201 200 200 201 201 200 200 201 201 201 201 201 200 200 200 200 200 200 200 202 204 204 205 209 212 213 212 211 212 216 219 219 220 221 221 220 218 218 220 221 221 221 219 220 223 226 226 226 225 224 223 220 218 221 226 231 231 231 233 238 244 250 256 261 266 270 274 278 279 277 276 278 287 292 298 309 326 348
298 263 236 223 216 211 208 206 202 201 200 201 201 201 200 201 202 201 201 200 199 200 200 199 199 198 197 198 200 201 203 207 210 210 211 212 212 215 219 219 219 221 221 223 222 220 220 221 220 221 219 218 222 226 227 227 226 227 228 228 226 226 229 233 236 238 239 242 245 250 257 263 267 270 272 276 280 281 280 276 271 267 270 275 280 281
313 273 242 224 218 213 209 207 204 202 201 201 202 202 201 200 202 202 201 200 199 199 200 199 198 197 197 197 199 201 203 207 209 207 206 212 214 216 219 219 219 220 221 223 224 221 220 220 219 220 220 218 220 224 227 228 227 227 228 229 230 232 235 238 240 243 245 247 248 251 255 260 265 269 272 274 276 278 277 275 272 270 270 271 271 267
326 288 251 227 218 214 209 207 206 203 201 201 201 202 201 200 202 202 201 200 199 199 199 199 198 198 198 198 200 202 203 207 210 206 202 206 211 216 222 222 219 220 220 222 223 222 219 218 218 218 219 219 220 223 226 227 227 228 229 229 230 231 235 238 240 244 247 251 252 253 255 257 261 266 268 270 271 272 274 274 273 273 272 272 270 266
336 304 264 232 219 215 210 207 206 204 202 201 201 202 201 201 202 202 202 201 199 199 199 198 198 198 198 199 201 202 203 207 210 208 205 204 203 207 217 222 221 221 222 222 222 223 221 218 217 218 219 220 221 222 225 227 227 227 228 230 231 232 235 237 240 243 247 251 253 254 256 258 260 263 265 267 269 270 271 271 273 274 273 271 270 267
345 319 279 241 221 215 211 207 205 205 203 202 201 202 201 201 202 202 202 201 200 200 199 198 198 198 198 199 201 202 204 207 210 211 210 209 205 202 205 212 217 220 223 223 222 222 222 219 217 218 219 221 222 224 226 227 228 227 227 229 231 233 236 239 240 242 245 248 249 251 254 256 257 261 264 266 268 269 269 268 269 271 270 270 269 266
351 331 295 256 228 215 211 208 206 205 204 202 201 202 202 201 202 203 203 202 201 201 200 199 198 198 198 199 201 203 205 208 210 212 213 212 209 205 202 205 210 214 221 224 222 221 222 220 219 219 219 221 223 224 226 228 229 229 229 230 233 235 239 242 244 246 247 247 245 247 251 253 254 257 259 261 264 266 267 265 265 266 266 266 268 267
353 340 312 272 240 219 212 209 206 204 204 203 202 202 202 201 202 203 203 202 202 201 201 199 199 199 199 199 201 204 207 209 211 212 213 212 210 208 205 206 210 212 216 223 222 220 221 221 221 221 221 223 223 224 226 229 230 231 232 234 238 242 246 249 250 251 251 250 247 246 248 251 252 253 254 256 259 261 262 263 262 262 262 264 267 268
346 346 326 288 253 228 215 210 207 205 204 204 203 202 202 202 202 203 204 203 202 202 201 200 199 199 199 198 200 204 208 211 213 213 213 212 211 209 209 210 211 211 214 220 221 219 220 221 222 223 223 225 226 226 228 230 232 234 236 238 242 245 248 250 251 253 255 257 255 251 250 251 252 252 252 253 253 254 258 261 261 261 262 265 267 268
329 345 337 305 265 238 221 212 208 206 204 204 204 203 202 202 202 203 204 204 203 203 202 201 200 200 200 199 199 202 207 212 216 216 215 213 211 211 211 212 213 213 215 219 220 219 220 221 222 223 223 225 227 228 230 233 236 240 241 240 243 246 248 250 251 252 254 257 258 256 254 254 254 254 253 253 252 252 254 258 262 263 264 266 267 267
314 331 341 322 280 247 228 215 210 207 205 205 205 204 203 202 203 203 204 204 204 204 203 202 201 200 200 199 197 199 203 210 217 219 219 217 214 213 213 213 214 215 216 220 222 220 219 219 221 223 223 223 225 226 227 232 236 240 241 241 243 245 247 249 250 250 250 251 252 254 256 257 257 256 254 253 253 253 253 254 259 263 264 266 267 268
308 312 334 333 299 256 232 219 212 209 207 206 206 205 203 203 203 204 204 204 204 204 203 202 201 201 200 198 195 196 199 204 213 219 221 220 218 216 216 215 215 216 217 220 223 222 221 220 220 221 222 222 222 220 222 225 229 232 237 240 241 242 243 244 244 245 248 249 246 246 252 256 258 258 257 255 255 255 256 256 255 255 256 258 262 265
307 302 313 333 318 274 240 223 214 210 208 207 207 206 205 204 204 204 205 205 205 204 203 203 202 201 200 197 194 196 197 200 210 217 220 222 221 218 217 217 216 215 217 219 221 223 223 223 221 219 219 221 221 218 217 219 221 223 226 229 231 233 237 239 239 239 244 248 247 244 246 253 257 257 256 256 255 256 257 256 253 249 249 251 255 259
305 301 297 314 326 299 255 231 218 213 210 208 207 207 206 205 205 205 205 206 206 205 204 203 203 202 201 197 195 196 197 198 206 213 215 218 222 220 218 217 216 215 216 217 219 221 224 226 225 221 218 220 221 218 216 216 219 221 222 225 226 227 228 230 231 234 238 243 246 245 245 248 250 250 250 252 253 253 252 251 250 248 246 248 251 251
304 301 295 294 312 314 277 244 227 217 213 209 208 207 207 206 206 205 205 206 206 206 205 205 204 203 201 199 197 198 200 199 204 210 209 211 218 221 219 217 216 216 215 216 218 220 221 225 227 225 220 219 221 219 216 216 218 220 222 225 228 228 227 226 226 229 233 237 240 243 245 245 244 246 249 252 255 255 253 252 253 251 247 246 248 248
302 300 297 292 294 306 295 262 239 225 216 211 209 208 208 208 207 206 206 206 207 206 206 206 206 204 203 201 200 201 202 202 205 210 208 206 212 219 220 218 217 217 218 217 218 219 219 221 226 226 223 221 221 220 218 216 218 222 224 225 227 228 229 230 230 232 234 236 237 239 242 244 244 246 248 251 254 256 255 254 255 254 250 247 246 246
300 299 297 295 293 295 298 278 251 234 221 213 210 209 209 208 208 207 207 207 207 207 207 207 207 206 204 203 203 203 204 204 207 210 209 206 207 214 219 219 218 219 220 219 219 219 218 219 223 225 223 223 222 220 219 217 217 221 224 225 226 227 229 231 232 233 235 236 237 237 238 240 242 245 247 248 251 254 254 255 256 255 253 249 246 245
297 299 297 296 296 295 296 286 261 242 228 216 212 211 209 209 209 208 207 207 208 208 208 208 208 208 207 206 206 206 206 206 208 210 210 207 206 210 216 220 220 220 221 220 220 219 218 220 223 224 224 224 223 221 220 220 219 220 222 224 226 227 229 231 232 233 234 235 236 238 238 239 241 243 244 246 248 250 253 256 256 255 253 250 247 246
293 297 297 297 297 298 299 292 267 246 234 222 214 212 210 209 209 209 208 208 208 209 209 209 209 210 210 209 209 209 209 209 210 211 210 209 206 207 213 219 221 221 221 220 220 220 219 221 224 225 224 225 225 223 222 221 221 221 223 225 226 228 230 231 232 234 234 234 235 237 239 240 241 242 244 246 247 248 250 253 254 254 252 250 247 246
289 293 295 297 298 299 302 297 272 247 237 228 218 213 211 210 210 210 209 209 209 209 209 210 210 211 212 212 212 212 213 213 213 213 212 210 208 206 209 216 222 223 222 221 221 221 221 221 222 224 225 225 226 225 224 223 223 223 225 226 227 229 231 233 234 234 235 235 235 236 238 240 242 243 244 246 246 246 246 247 249 251 251 250 248 247
286 290 293 296 298 300 303 301 279 248 236 231 222 215 212 211 211 210 210 209 210 210 210 210 211 212 213 214 214 215 216 216 217 217 217 215 213 211 209 212 219 224 225 224 222 222 222 223 223 224 225 226 226 226 226 225 225 225 227 228 229 230 231 233 234 235 236 236 237 237 238 239 240 241 241 242 243 243 243 244 245 247 249 250 250 249
284 289 293 296 299 302 305 306 287 253 235 231 225 217 213 211 211 211 210 210 210 211 211 211 212 213 214 215 216 217 218 218 219 219 220 220 220 219 217 215 216 221 225 227 226 224 223 224 225 226 226 227 227 228 228 228 228 228 228 230 231 231 231 232 234 235 236 237 237 238 238 238 237 238 238 240 241 243 244 246 247 248 249 250 249 249
283 288 293 296 300 304 309 308 291 257 236 229 225 220 214 211 211 211 211 211 211 212 212 212 213 214 216 217 218 218 219 220 220 220 221 222 222 223 222 220 218 218 222 226 228 228 226 225 226 228 228 228 229 229 229 229 230 230 230 231 231 232 232 233 234 236 237 237 238 237 237 237 238 238 239 240 242 243 245 248 249 250 250 251 251 251
283 286 291 297 301 305 312 310 292 261 238 227 223 220 215 211 210 210 211 212 213 213 214 214 213 214 216 218 218 219 220 220 221 221 221 222 223 223 223 222 222 221 221 223 227 230 229 228 228 228 229 229 230 230 230 231 231 231 232 232 232 233 233 234 235 236 237 238 238 239 239 239 239 240 241 242 243 244 246 248 250 251 252 253 253 254
281 285 289 296 301 306 313 311 293 262 238 226 220 218 214 209 208 207 208 211 214 214 215 216 216 216 218 219 219 219 220 221 221 222 221 221 222 224 223 223 223 223 223 222 224 228 230 231 230 230 230 231 231 230 231 231 232 233 233 233 233 234 234 234 235 237 237 238 238 239 239 240 240 241 242 243 244 245 246 248 249 251 253 254 254 255
279 283 287 294 300 305 313 312 296 264 238 224 217 214 210 206 204 201 200 206 212 210 210 216 219 220 221 221 221 221 221 221 222 222 222 222 222 223 224 223 223 224 225 225 224 226 229 231 232 232 232 232 232 232 232 231 232 232 233 234 234 234 235 235 236 237 237 238 238 239 239 240 241 241 242 243 244 245 246 247 249 250 252 253 254 255
276 280 285 292 298 304 314 314 299 264 235 219 211 208 205 200 197 196 194 200 207 205 200 205 217 222 224 224 223 223 223 223 223 223 223 223 222 223 224 224 224 224 225 226 227 227 227 229 232 233 234 234 234 234 233 233 232 232 232 233 234 234 235 235 235 236 237 238 238 239 239 239 240 241 242 243 244 245 246 247 248 249 251 252 253 254